The Dalles, WA

7:02 PM PST on November 16, 2019 (GMT -0800)
Columbia Gorge Regional-The Dalles

Weather History for KDLS - September, 2019

Change the Weather History Date:

Wednesday, September 4, 2019

  Actual Average Record
Temperature  
Mean Temperature 74 °F -  
Max Temperature 90 °F 86 °F 102 °F (1988)
Min Temperature 57 °F 56 °F 44 °F (1956)
Cooling Degree Days 8    
Growing Degree Days 24 (Base 50)    
Moisture  
Dew Point 53 °F    
Average Humidity 52    
Maximum Humidity 87    
Minimum Humidity 20    
Precipitation  
Precipitation 0.00 in - - ()
Sea Level Pressure  
Sea Level Pressure 29.95 in    
Wind  
Wind Speed 6 mph (NW)    
Max Wind Speed 12 mph    
Max Gust Speed -    
Visibility 10 miles    
Events      
Averages and records for this station are not official NWS values.
T = Trace of Precipitation, MM = Missing Value Source: NWS Daily Summary

Daily Weather History Graph

Daily Weather History Graph

Search for Another Location

Airport or City:

Astronomy

Sep. 04, 2019 Rise Set
Actual Time 6:29 AM PDT 7:37 PM PDT
Civil Twilight 5:58 AM PDT 8:07 PM PDT
Nautical Twilight 5:22 AM PDT 8:43 PM PDT
Astronomical Twilight 4:43 AM PDT 9:22 PM PDT
Moon 12:54 PM PDT (9/4) 10:55 PM PDT (9/4)
Length of Visible Light 14h 08m
Length of Day
13h 07m
Waxing Crescent, 36% of the Moon is Illuminated
Sep 4
Waxing Crescent
Sep 5
First Quarter
Sep 13
Full
Sep 21
Last Quarter
Sep 28
New

Hourly Weather History & Observations

Time (PDT) Temp. Dew Point Humidity Pressure Visibility Wind Dir Wind Speed Gust Speed Precip Events Conditions
12:53 AM 70.0 °F 55.9 °F 61% 29.96 in 10.0 mi NW 9.2 mph - N/A   Clear
1:53 AM 66.9 °F 55.9 °F 68% 29.97 in 10.0 mi WNW 9.2 mph - N/A   Clear
2:53 AM 66.0 °F 55.9 °F 70% 29.98 in 10.0 mi WNW 9.2 mph - N/A   Clear
3:53 AM 64.9 °F 55.9 °F 73% 29.99 in 10.0 mi NNW 8.1 mph - N/A   Clear
4:53 AM 64.0 °F 55.9 °F 75% 29.99 in 10.0 mi Variable 3.5 mph - N/A   Clear
5:53 AM 59.0 °F 55.0 °F 87% 30.00 in 10.0 mi Calm Calm - N/A   Clear
6:53 AM 57.9 °F 53.1 °F 84% 30.01 in 10.0 mi ESE 5.8 mph - N/A   Clear
7:53 AM 64.0 °F 55.9 °F 75% 30.02 in 10.0 mi Calm Calm - N/A   Clear
8:53 AM 66.9 °F 55.9 °F 68% 30.03 in 10.0 mi Calm Calm - N/A   Clear
9:53 AM 71.1 °F 57.0 °F 61% 30.02 in 10.0 mi WNW 3.5 mph - N/A   Clear
10:53 AM 75.0 °F 57.0 °F 53% 30.01 in 10.0 mi NNW 4.6 mph - N/A   Clear
11:53 AM 78.1 °F 54.0 °F 43% 29.99 in 10.0 mi WNW 4.6 mph - N/A   Clear
12:53 PM 82.0 °F 51.1 °F 34% 29.96 in 9.0 mi Variable 4.6 mph - N/A   Clear
1:53 PM 84.9 °F 45.0 °F 25% 29.94 in 10.0 mi SSE 5.8 mph - N/A   Clear
2:53 PM 87.1 °F 46.9 °F 25% 29.91 in 10.0 mi Variable 5.8 mph - N/A   Clear
3:53 PM 87.1 °F 46.0 °F 24% 29.89 in 10.0 mi Variable 3.5 mph - N/A   Clear
4:53 PM 90.0 °F 44.1 °F 20% 29.87 in 10.0 mi Calm Calm - N/A   Clear
5:53 PM 89.1 °F 46.9 °F 23% 29.85 in 10.0 mi NW 5.8 mph - N/A   Clear
6:53 PM 84.0 °F 52.0 °F 33% 29.85 in 10.0 mi NNW 8.1 mph - N/A   Clear
7:53 PM 79.0 °F 55.9 °F 45% 29.86 in 10.0 mi NW 10.4 mph - N/A   Clear
8:53 PM 77.0 °F 57.0 °F 50% 29.88 in 10.0 mi NW 11.5 mph - N/A   Clear
9:53 PM 73.9 °F 57.0 °F 55% 29.90 in 10.0 mi NW 9.2 mph - N/A   Clear
10:53 PM 72.0 °F 54.0 °F 53% 29.91 in 10.0 mi West 6.9 mph - N/A   Clear
11:53 PM 69.1 °F 50.0 °F 51% 29.92 in 10.0 mi Calm Calm - N/A   Clear